Content
SEND FEEDBACK

Daily
Averages
Monthly
Summary
United States of America

LYNCHBURG, TENNESSEE


Home > North America > United States > Tennessee
Elevation: 810 feet     Latitude: 35 18N     Longitude: 086 22W

WEATHER
 
SELECT A DAY
Number of Records: 56,108;   Date Range: 9/2/10 - 9/15/14
 
SHARE

PRINT THIS DATA

[ ← Previous Day ]
WEATHER ALMANAC - APRIL 7, 2014
[ Next Day → ]
[ °C ]   °F
Weather ElementAverageHighLow
Temperature53.7 °F62.6 °F (2:35 pm)44.6 °F (11:55 pm)
Dewpoint49.7 °F59 °F (2:15 pm)41 °F (9:55 pm)
Humidity86.7 %100 % (12:35 am)71 % (7:15 pm)
Barometer29.69 in29.84 in (10:55 pm)29.57 in (9:35 am)
Wind Speed13.9 mph24.2 mph (4:15 pm)
Wind Gust33.4 mph (2:55 am)
Weather ElementAverage
Visibility8.7 mi
Wind DirectionSSW (200.9 °)

Weather ElementTotal
Precipitation---
Heating Degree Days11.4 (Base 65)
Growing Degree Days3.6 (Base 50)
Averaged from 70 records on April 7, 2014
WEATHER CONDITIONS BREAKOUT
WIND DIRECTION BREAKOUT
WEATHER BY HOUR - APRIL 7, 2014
[ °C ]   °F
Local TimeTemperatureDewpointHumidityBarometerVisibilityWind DirectionWind SpeedGust SpeedPrecipitationEventsConditions
12:35 AM50.0 °F50.0 °F100 %29.80 in4.0 miESE (120°)12.7 mphMostly Cloudy
12:55 AM51.8 °F50.0 °F94 %29.80 in5.0 miSE (130°)8.1 mphOvercast
1:15 AM51.8 °F50.0 °F94 %29.79 in5.0 miSE (130°)8.1 mphOvercast
1:35 AM51.8 °F50.0 °F94 %29.74 in7.0 miSE (130°)11.5 mphMostly Cloudy
1:55 AM51.8 °F50.0 °F94 %29.75 in10.0 miSSE (150°)11.5 mphMostly Cloudy
2:15 AM51.8 °F50.0 °F94 %29.71 in7.0 miSE (140°)15.0 mphOvercast
2:35 AM51.8 °F48.2 °F88 %29.71 in6.0 miSSE (150°)18.4 mphMostly Cloudy
2:55 AM51.8 °F48.2 °F88 %29.68 in6.0 miSE (140°)17.3 mph33.4 mphMostly Cloudy
3:15 AM51.8 °F48.2 °F88 %29.69 in8.0 miSSE (150°)17.3 mphMostly Cloudy
3:35 AM51.8 °F50.0 °F94 %29.72 in10.0 miSSE (160°)13.8 mphMostly Cloudy
3:55 AM51.8 °F50.0 °F94 %29.74 in6.0 miSSE (160°)16.1 mphOvercast
4:15 AM51.8 °F50.0 °F94 %29.70 in5.0 miSSE (150°)15.0 mphMostly Cloudy
4:35 AM51.8 °F50.0 °F94 %29.71 in6.0 miSSE (150°)10.4 mphMostly Cloudy
4:55 AM51.8 °F51.8 °F100 %29.66 in8.0 miSSE (150°)15.0 mphOvercast
5:15 AM51.8 °F51.8 °F100 %29.64 in10.0 miSSE (150°)16.1 mph28.8 mphScattered Clouds
5:35 AM51.8 °F51.8 °F100 %29.65 in10.0 miSSE (150°)17.3 mphClear
5:55 AM53.6 °F51.8 °F94 %29.67 in10.0 miSSE (160°)19.6 mphClear
6:15 AM53.6 °F51.8 °F94 %29.65 in10.0 miSSE (150°)15.0 mphMostly Cloudy
6:35 AM51.8 °F51.8 °F100 %29.67 in10.0 miSSE (150°)11.5 mphScattered Clouds
6:55 AM53.6 °F51.8 °F94 %29.67 in10.0 miSSE (150°)10.4 mphMostly Cloudy
7:15 AM53.6 °F51.8 °F94 %29.65 in10.0 miSSE (150°)12.7 mphMostly Cloudy
7:35 AM53.6 °F51.8 °F94 %29.65 in10.0 miSSE (150°)12.7 mphPartly Cloudy
7:55 AM53.6 °F51.8 °F94 %29.64 in10.0 miSE (140°)12.7 mphClear
8:15 AM55.4 °F51.8 °F88 %29.63 in10.0 miSSE (150°)13.8 mphClear
8:35 AM55.4 °F51.8 °F88 %29.62 in10.0 miSSE (150°)13.8 mphMostly Cloudy
8:55 AM55.4 °F51.8 °F88 %29.61 in10.0 miSSE (160°)13.8 mphOvercast
9:15 AM57.2 °F53.6 °F88 %29.58 in10.0 miSSE (160°)17.3 mphScattered Clouds
9:35 AM57.2 °F53.6 °F88 %29.57 in10.0 miSouth (170°)13.8 mphPartly Cloudy
9:55 AM59.0 °F53.6 °F82 %29.58 in10.0 miSSE (160°)13.8 mphMostly Cloudy
10:15 AM59.0 °F53.6 °F82 %29.59 in10.0 miSouth (170°)13.8 mphOvercast
10:35 AM60.8 °F53.6 °F77 %29.59 in10.0 miSouth (170°)10.4 mphOvercast
10:55 AM60.8 °F55.4 °F82 %29.59 in10.0 miSouth (170°)13.8 mphOvercast
11:15 AM60.8 °F55.4 °F82 %29.59 in8.0 miSouth (170°)15.0 mphOvercast
11:35 AM60.8 °F55.4 °F82 %29.59 in10.0 miSouth (170°)13.8 mphOvercast
11:55 AM59.0 °F55.4 °F88 %29.59 in5.0 miSouth (180°)11.5 mphOvercast
12:15 PM59.0 °F55.4 °F88 %29.60 in4.0 miSouth (190°)10.4 mphOvercast
12:35 PM59.0 °F57.2 °F94 %29.60 in8.0 miSouth (190°)13.8 mphOvercast
12:55 PM57.2 °F57.2 °F100 %29.60 in5.0 miSouth (180°)12.7 mphOvercast
1:15 PM59.0 °F57.2 °F94 %29.60 in2.5 miSouth (190°)11.5 mphOvercast
1:35 PM59.0 °F57.2 °F94 %29.60 in4.0 miSouth (190°)11.5 mphOvercast
1:55 PM59.0 °F57.2 °F94 %29.60 in7.0 miSW (220°)12.7 mphOvercast
2:15 PM60.8 °F59.0 °F94 %29.60 in10.0 miSW (220°)13.8 mphOvercast
2:35 PM62.6 °F59.0 °F88 %29.58 in10.0 miSW (220°)16.1 mphOvercast
3:15 PM60.8 °F55.4 °F82 %29.59 in10.0 miWSW (250°)19.6 mphMostly Cloudy
3:35 PM59.0 °F53.6 °F82 %29.60 in10.0 miWSW (250°)20.7 mphOvercast
3:55 PM57.2 °F51.8 °F82 %29.61 in10.0 miSW (230°)21.9 mphOvercast
4:15 PM57.2 °F50.0 °F77 %29.62 in10.0 miWSW (250°)24.2 mphOvercast
4:35 PM55.4 °F48.2 °F77 %29.64 in10.0 miWSW (240°)15.0 mphOvercast
4:55 PM55.4 °F46.4 °F72 %29.65 in10.0 miWSW (240°)16.1 mphOvercast
5:15 PM53.6 °F46.4 °F77 %29.66 in10.0 miWSW (240°)16.1 mphOvercast
5:35 PM53.6 °F46.4 °F77 %29.67 in10.0 miSW (230°)12.7 mphOvercast
5:55 PM53.6 °F46.4 °F77 %29.68 in10.0 miSW (230°)11.5 mphOvercast
6:15 PM53.6 °F46.4 °F77 %29.70 in10.0 miWSW (250°)10.4 mphOvercast
6:35 PM53.6 °F46.4 °F77 %29.70 in10.0 miWSW (240°)10.4 mphOvercast
6:55 PM53.6 °F44.6 °F72 %29.72 in10.0 miWest (280°)21.9 mphOvercast
7:15 PM51.8 °F42.8 °F71 %29.74 in10.0 miWest (280°)16.1 mphOvercast
7:35 PM51.8 °F42.8 °F71 %29.76 in10.0 miWest (280°)16.1 mphOvercast
7:55 PM50.0 °F42.8 °F76 %29.76 in10.0 miWest (270°)18.4 mphOvercast
8:15 PM48.2 °F42.8 °F82 %29.78 in10.0 miWest (280°)15.0 mphOvercast
8:35 PM48.2 °F42.8 °F82 %29.79 in10.0 miWNW (290°)16.1 mphOvercast
8:55 PM48.2 °F42.8 °F82 %29.80 in10.0 miWest (270°)13.8 mphOvercast
9:15 PM48.2 °F42.8 °F82 %29.82 in10.0 miWest (280°)10.4 mphOvercast
9:35 PM48.2 °F42.8 °F82 %29.83 in10.0 miWest (280°)15.0 mphOvercast
9:55 PM46.4 °F41.0 °F81 %29.83 in10.0 miWest (280°)10.4 mphOvercast
10:15 PM46.4 °F41.0 °F81 %29.83 in10.0 miWest (270°)9.2 mphOvercast
10:35 PM46.4 °F41.0 °F81 %29.83 in10.0 miWest (280°)8.1 mphOvercast
10:55 PM46.4 °F41.0 °F81 %29.84 in10.0 miWest (270°)12.7 mphOvercast
11:15 PM46.4 °F41.0 °F81 %29.84 in10.0 miWNW (290°)9.2 mphOvercast
11:35 PM46.4 °F41.0 °F81 %29.84 in10.0 miWest (280°)6.9 mphOvercast
11:55 PM44.6 °F42.8 °F93 %29.84 in4.0 miWNW (290°)10.4 mphOvercast
Hourly data recorded from KTHA, located miles away from Lynchburg, Tennessee







STORIES FROM OUR PARTNERS